Weather History for Shreveport, LA

Change the Weather History Date:

Saturday, April 27, 2013

  Actual Average Record
Temperature  
Mean Temperature 74 °F 68 °F  
Max Temperature 83 °F 79 °F 92 °F (1987)
Min Temperature 65 °F 57 °F 40 °F (1978)
Degree Days  
Heating Degree Days 0 1  
Month to date heating degree days 123 83  
Since 1 July heating degree days 2043 2216  
Cooling Degree Days 9 4  
Month to date cooling degree days 76 79  
Year to date cooling degree days 101 120  
Growing Degree Days 24 (Base 50)    
Moisture  
Dew Point 64 °F    
Average Humidity 76    
Maximum Humidity 93    
Minimum Humidity 58    
Precipitation  
Precipitation T in 0.13 in 2.94 in (1957)
Month to date precipitation 3.18 3.76  
Year to date precipitation 14.20 16.85  
Snow  
Snow 0.00 in - - ()
Month to date snowfall 0.0  
Since 1 July snowfall 0.1  
Snow Depth 0.00 in    
Sea Level Pressure  
Sea Level Pressure 30.03 in    
Wind  
Wind Speed 8 mph (SSW)    
Max Wind Speed 18 mph    
Max Gust Speed 22 mph    
Visibility 10 miles    
Events Thunderstorm    
T = Trace of Precipitation, MM = Missing Value Source: NWS Daily Summary

Daily Weather History Graph

Daily Weather History Graph

Search for Another Location

Airport:

Trip Planner

Search our weather history database for the weather conditions in past years. The results will help you decide how hot, cold, wet, or windy it might be!

Date:

Astronomy

Apr. 27, 2013 Rise Set
Actual Time 6:32 AM CDT 7:53 PM CDT
Civil Twilight 6:06 AM CDT 8:19 PM CDT
Nautical Twilight 5:35 AM CDT 8:50 PM CDT
Astronomical Twilight 5:03 AM CDT 9:23 PM CDT
Moon 10:17 PM CDT (4/27) 7:56 AM CDT (4/27)
Length of Visible Light 14h 13m
Length of Day
13h 21m
Waning Gibbous, 95% of the Moon is Illuminated
Apr 27
Waning Gibbous
May 2
Last Quarter
May 9
New
May 17
First Quarter
May 24
Full

Hourly Weather History & Observations

Time (CDT) Temp. Heat Index Dew Point Humidity Pressure Visibility Wind Dir Wind Speed Gust Speed Precip Events Conditions
12:56 AM 68.0 °F - 64.0 °F 87% 30.09 in 9.0 mi SSW 8.1 mph - N/A   Mostly Cloudy
1:36 AM 69.8 °F - 64.4 °F 83% 30.10 in 10.0 mi South 5.8 mph - N/A   Overcast
1:56 AM 69.1 °F - 64.9 °F 87% 30.10 in 10.0 mi SW 10.4 mph 16.1 mph N/A   Overcast
2:44 AM 66.2 °F - 64.4 °F 94% 30.08 in 10.0 mi SSE 5.8 mph - N/A   Mostly Cloudy
2:56 AM 66.9 °F - 64.0 °F 90% 30.06 in 10.0 mi South 6.9 mph - N/A   Mostly Cloudy
3:07 AM 66.2 °F - 64.4 °F 94% 30.07 in 10.0 mi South 5.8 mph - N/A   Overcast
3:39 AM 66.2 °F - 64.4 °F 94% 30.05 in 10.0 mi South 10.4 mph - N/A   Overcast
3:56 AM 66.9 °F - 64.0 °F 90% 30.05 in 10.0 mi South 6.9 mph - N/A   Mostly Cloudy
4:07 AM 66.2 °F - 64.4 °F 94% 30.05 in 10.0 mi South 9.2 mph - N/A   Scattered Clouds
4:56 AM 66.9 °F - 64.0 °F 90% 30.02 in 10.0 mi South 9.2 mph - N/A   Clear
5:29 AM 66.2 °F - 64.4 °F 94% 30.05 in 9.0 mi South 9.2 mph - N/A   Partly Cloudy
5:56 AM 66.9 °F - 64.0 °F 90% 30.05 in 9.0 mi SSW 5.8 mph - N/A   Mostly Cloudy
6:32 AM 66.2 °F - 64.4 °F 94% 30.08 in 10.0 mi SSW 4.6 mph - N/A   Overcast
6:45 AM 66.2 °F - 64.4 °F 94% 30.08 in 10.0 mi SSW 5.8 mph - N/A   Overcast
6:56 AM 66.9 °F - 64.0 °F 90% 30.08 in 10.0 mi SSW 4.6 mph - N/A   Overcast
7:56 AM 66.9 °F - 64.0 °F 90% 30.09 in 8.0 mi South 4.6 mph - N/A   Overcast
8:20 AM 68.0 °F - 64.4 °F 88% 30.09 in 8.0 mi South 5.8 mph - N/A   Overcast
8:56 AM 69.1 °F - 64.9 °F 87% 30.08 in 9.0 mi South 6.9 mph - N/A   Overcast
9:56 AM 71.1 °F - 64.9 °F 81% 30.07 in 10.0 mi South 10.4 mph - N/A   Overcast
10:41 AM 73.4 °F - 64.4 °F 73% 30.07 in 10.0 mi South 11.5 mph - N/A   Overcast
10:56 AM 73.0 °F - 64.9 °F 76% 30.07 in 10.0 mi SSW 8.1 mph 17.3 mph N/A   Overcast
11:56 AM 75.9 °F - 64.9 °F 69% 30.06 in 10.0 mi SSW 8.1 mph - N/A   Mostly Cloudy
12:09 PM 75.2 °F - 64.4 °F 69% 30.07 in 10.0 mi SW 11.5 mph 17.3 mph N/A   Overcast
12:56 PM 78.1 °F - 66.0 °F 66% 30.04 in 10.0 mi SW 11.5 mph - N/A   Mostly Cloudy
1:56 PM 80.1 °F 82.1 °F 66.0 °F 62% 30.03 in 10.0 mi SSW 11.5 mph - N/A   Mostly Cloudy
2:56 PM 81.0 °F 83.3 °F 66.9 °F 62% 30.00 in 10.0 mi SW 9.2 mph - N/A   Mostly Cloudy
3:56 PM 82.0 °F 84.1 °F 66.0 °F 58% 29.96 in 10.0 mi SW 6.9 mph - N/A   Mostly Cloudy
4:56 PM 82.0 °F 84.1 °F 66.0 °F 58% 29.96 in 10.0 mi SSW 9.2 mph - N/A   Mostly Cloudy
5:56 PM 80.1 °F 82.3 °F 66.9 °F 64% 29.94 in 10.0 mi SSW 9.2 mph - N/A   Mostly Cloudy
6:56 PM 80.1 °F 82.1 °F 66.0 °F 62% 29.91 in 10.0 mi WNW 12.7 mph - N/A   Mostly Cloudy
7:01 PM 80.6 °F 82.7 °F 66.2 °F 61% 29.93 in 10.0 mi WNW 13.8 mph - N/A Thunderstorm Thunderstorm
7:22 PM 78.8 °F - 64.4 °F 61% 29.96 in 10.0 mi WNW 12.7 mph - N/A   Mostly Cloudy
7:56 PM 75.9 °F - 64.0 °F 67% 29.97 in 10.0 mi NNW 9.2 mph - N/A   Overcast
8:11 PM 75.2 °F - 64.4 °F 69% 29.98 in 10.0 mi NW 5.8 mph - N/A Thunderstorm Thunderstorm
8:24 PM 75.2 °F - 64.4 °F 69% 29.98 in 10.0 mi Calm Calm - N/A Thunderstorm Thunderstorm
8:40 PM 73.4 °F - 62.6 °F 69% 29.98 in 10.0 mi North 4.6 mph - N/A   Mostly Cloudy
8:56 PM 73.9 °F - 63.0 °F 68% 29.97 in 10.0 mi North 5.8 mph - N/A   Overcast
9:56 PM 70.0 °F - 61.0 °F 73% 30.01 in 10.0 mi North 5.8 mph - N/A   Mostly Cloudy
10:35 PM 69.8 °F - 59.0 °F 68% 30.02 in 10.0 mi NNE 5.8 mph - N/A   Overcast
10:56 PM 69.1 °F - 57.9 °F 68% 30.02 in 10.0 mi NNE 9.2 mph - N/A   Overcast
11:56 PM 66.0 °F - 60.1 °F 81% 30.02 in 10.0 mi North 3.5 mph - 0.00 in   Overcast